Terminal Aerodrome Forecast
Issued by NWS

Home | Current Version | Previous Version | Text Only | Print | Product List | Glossary On
Versions: 1 2 3 4 5 6 7 8 9 10 11 12 13 14 15 16 17 18 19 20 21 22 23 24 25 26 27 28 29 30 31 32 33 34 35 36 37 38 39 40 41 42
000
FTAK31 PAFA 271739
TAFAGA
TAF
PAGA 271739Z 2718/2818 01005KT P6SM SKC
     FM272200 VRB04KT P6SM BKN200
     FM281200 08005KT P6SM SCT030 OVC060 PROB30 2812/2818 2SM -SN
      OVC020=

USA.gov is the U.S. government's official web portal to all federal, state and local government web resources and services.